RH
37 51 48 41 41 48 73 80 68 60 72 87 96 82 86 76 61 46 30 51 22 21 20 19 18 15 12 10 10 11 13 16 18 24 29 31 31 31 36 34 19 14 17 22 26 26 24 24 24
55 56 48 47 42 66 82 77 72 60 70 78 85 94 97 98 81 20 37 24 20 20 19 19 18 17 17 17 14 12 11 11 12 13 14 13 13 15 19 17 20 17 16 19 23 25 25 26 26
57 59 57 49 43 66 77 92 72 72 83 83 75 75 90 78 19 27 36 70 21 22 23 26 32 37 35 28 21 19 17 15 13 12 11 12 11 11 13 15 17 22 19 20 23 24 24 24 25
57 54 48 49 54 72 76 76 81 75 82 84 79 83 75 22 20 34 85 49 28 34 45 50 55 62 62 59 58 55 44 34 27 22 20 17 15 13 12 13 15 18 23 24 23 24 25 26 26
46 43 46 61 80 98 84 79 87 85 74 73 78 66 41 17 19 22 28 33 41 43 49 53 59 57 56 55 56 58 56 57 57 56 56 55 51 43 35 17 14 15 19 22 23 24 24 24 23
38 38 49 89 85 99 96 97 100 89 81 74 71 48 22 16 21 33 40 40 47 55 58 56 55 54 53 52 52 50 48 53 52 51 51 53 56 59 60 56 51 22 16 20 23 23 22 23 23
33 31 49 88 95 98 99 95 96 89 78 72 58 50 18 18 26 35 37 48 57 53 49 46 40 35 27 16 9 6 6 6 7 8 10 11 15 19 40 49 56 57 32 18 20 24 24 22 22
53 34 56 74 80 91 88 92 88 82 69 60 52 47 20 20 30 31 39 57 55 50 39 15 3 2 2 3 4 5 5 5 5 5 4 4 4 4 6 12 22 35 52 62 38 22 22 24 23
50 35 43 59 68 70 79 79 75 72 63 60 59 50 27 28 29 32 42 56 52 35 5 2 4 5 6 7 8 8 8 7 7 7 6 6 6 6 5 4 5 8 16 25 43 58 49 36 28
42 36 42 55 55 63 76 82 71 67 64 64 61 46 28 27 30 34 53 54 36 5 3 6 7 8 8 8 8 8 7 6 6 6 5 5 5 5 5 5 5 4 4 5 7 12 32 57 61
42 38 39 43 64 71 68 72 76 69 62 60 58 47 31 28 41 54 52 32 4 4 7 9 9 9 7 7 6 4 4 4 4 4 5 5 4 4 4 4 4 4 4 4 4 4 4 5 11
37 36 44 46 68 74 66 70 71 65 65 51 44 39 37 50 57 46 26 4 3 7 9 9 8 8 7 6 4 4 5 5 5 5 5 5 5 4 4 4 4 4 3 3 3 3 3 3 3
34 37 49 52 66 75 68 70 72 64 51 51 46 49 51 52 49 30 5 4 8 9 10 10 9 9 8 6 6 5 5 5 6 6 6 6 5 5 5 5 4 4 4 4 4 4 3 3 2
37 38 48 58 62 67 64 62 61 55 56 48 41 42 44 45 31 12 3 7 9 10 11 11 11 10 10 9 9 8 8 7 6 6 6 5 6 5 5 5 5 5 5 5 4 4 4 4 4
40 41 51 62 72 65 61 61 49 48 54 59 49 46 41 32 18 4 5 8 10 11 12 12 12 12 12 12 12 12 12 12 11 11 11 11 11 10 10 10 9 9 8 8 7 6 5 5 4
57 53 66 71 70 61 53 44 40 36 36 45 45 48 37 24 14 3 8 9 12 13 14 14 13 13 13 13 14 14 14 15 15 14 15 15 15 15 16 16 17 17 17 16 15 14 12 9 6
60 61 56 61 54 53 49 30 38 42 33 28 30 32 28 17 8 4 8 10 13 14 16 16 15 14 14 14 15 15 15 16 16 16 16 17 18 19 20 20 21 22 22 22 21 20 20 19 16
47 49 47 47 44 38 29 24 18 23 17 10 9 10 13 8 4 5 9 11 13 15 18 19 20 19 17 16 16 16 16 16 17 18 19 21 22 23 24 24 25 25 26 26 27 27 26 26 27
27 27 33 38 31 30 22 18 12 11 9 8 11 8 5 6 3 5 10 11 13 16 17 19 21 23 23 21 19 17 16 16 18 19 20 22 23 25 26 26 26 26 26 26 27 30 33 33 30
21 24 28 30 30 21 13 11 9 6 6 9 14 12 8 5 4 6 10 11 13 16 17 19 21 23 24 24 23 22 22 20 20 20 21 22 23 24 26 27 28 28 29 29 30 31 33 36 37
20 23 24 24 20 18 17 8 6 5 4 8 8 8 9 5 6 9 10 13 14 17 18 19 19 20 22 25 27 28 27 26 24 24 24 25 24 23 24 25 25 26 27 30 33 35 39 41 42
18 22 24 22 18 18 17 17 8 9 10 10 10 10 12 10 7 8 10 12 16 18 19 20 20 22 23 24 24 26 29 31 30 31 30 28 28 30 35 35 30 29 31 35 38 45 45 46 47
21 19 23 24 19 19 18 21 10 8 6 11 10 11 13 17 14 9 11 13 17 17 19 21 24 29 34 35 35 31 28 34 38 37 34 35 34 42 51 61 53 38 36 39 45 49 46 46 44
21 19 25 22 20 23 18 19 8 7 10 12 16 13 14 14 17 19 13 13 12 15 21 27 30 35 40 45 49 52 46 42 41 40 45 48 52 62 70 71 76 56 38 41 50 50 50 48 42
20 19 21 25 32 31 20 19 8 9 9 10 15 16 15 14 16 18 20 17 13 17 25 30 34 38 44 49 52 56 59 59 58 57 60 62 66 71 77 83 85 60 42 45 53 54 54 47 34
20 20 21 30 27 22 32 22 14 19 18 18 20 21 17 14 16 19 20 22 19 20 26 33 38 42 46 50 54 57 61 64 67 68 70 72 76 82 85 86 82 49 46 56 57 63 52 40 26
22 20 20 19 37 42 20 18 12 13 19 17 18 18 16 17 18 21 22 23 24 24 28 37 43 44 48 52 55 59 63 67 70 73 75 79 87 88 88 91 57 51 58 62 70 63 43 28 17
22 22 24 22 57 44 27 16 10 16 14 14 11 12 16 13 14 21 23 25 26 28 31 39 44 45 48 52 55 59 63 69 73 77 80 85 93 94 93 63 56 63 68 74 63 42 24 14 11
24 24 22 21 21 35 27 12 11 12 11 11 9 8 7 8 12 16 18 18 22 30 32 36 41 45 50 54 57 60 67 73 77 78 85 92 93 94 60 60 66 73 78 61 40 20 12 10 8
20 24 23 22 24 27 32 19 11 12 14 14 14 15 13 11 13 17 23 21 15 22 31 35 40 49 54 59 60 65 71 76 78 84 90 95 95 60 62 69 76 81 57 33 14 10 9 7 6
Wind_Speed
20 17 13 7 4 6 16 12 20 25 14 10 7 12 8 5 5 9 11 7 7 8 9 10 9 9 9 8 7 6 6 5 5 4 4 5 6 6 7 9 8 6 5 5 6 7 8 7 7
16 14 6 4 7 10 12 20 24 21 8 7 13 7 8 0 3 14 12 8 7 9 10 9 9 10 10 9 8 8 7 6 6 6 7 7 5 4 6 7 6 4 3 3 3 5 5 6 6
12 7 2 5 5 9 11 19 22 21 12 11 15 5 3 5 16 14 12 6 6 10 9 9 10 11 10 10 10 10 9 9 9 8 7 7 7 7 7 7 7 6 5 5 4 3 3 3 4
6 1 4 8 9 8 17 17 16 15 15 14 14 6 5 11 13 13 9 8 7 9 10 10 8 8 8 8 8 8 8 8 8 8 8 8 8 7 7 6 6 7 7 7 8 8 6 5 4
4 3 3 6 10 15 17 16 15 13 11 12 9 4 9 12 12 9 11 10 8 9 8 7 7 7 8 8 8 8 9 9 9 9 9 9 9 10 9 7 6 6 7 8 8 9 8 6 6
8 4 1 8 14 20 19 17 14 12 12 10 7 10 8 11 11 9 9 8 9 8 8 7 7 7 8 9 10 9 10 10 10 11 12 12 11 10 11 10 9 7 7 8 10 11 11 10 8
5 1 4 13 19 18 17 15 11 12 11 10 11 10 6 10 10 9 7 7 7 7 7 7 6 7 9 10 10 9 9 10 11 11 11 11 11 11 12 13 12 11 9 10 10 12 13 13 13
4 2 12 12 21 20 18 15 14 15 13 12 13 6 6 6 7 6 6 5 4 6 8 9 8 7 7 8 9 9 9 8 9 9 10 10 9 9 10 12 13 13 14 14 13 13 14 14 14
1 4 11 16 16 17 18 15 18 16 15 13 11 7 6 5 4 3 3 2 3 7 7 6 6 7 7 8 9 9 9 8 7 7 8 8 9 10 10 11 12 13 15 15 17 18 17 16 16
5 10 12 12 9 14 18 15 17 16 16 13 9 5 7 4 2 3 2 2 5 5 5 6 7 8 8 8 8 8 8 8 8 8 9 9 9 10 11 11 11 11 13 14 16 17 19 20 20
8 10 11 9 15 12 14 16 14 12 10 9 6 7 6 4 4 4 2 4 4 4 5 7 8 8 8 9 10 9 8 8 8 8 9 9 9 9 9 10 12 13 14 14 15 16 17 18 20
13 13 11 12 16 13 11 13 16 14 6 5 8 9 8 8 6 5 4 2 2 4 6 7 7 9 10 10 10 10 11 11 11 10 10 10 10 10 11 11 12 12 12 13 14 16 17 18 18
9 15 17 16 16 14 13 14 11 8 7 8 9 10 9 6 5 5 3 1 2 3 4 6 8 9 9 9 11 12 12 12 12 12 12 13 13 12 12 12 14 15 15 16 16 17 17 18 18
9 15 20 19 19 18 16 15 11 8 9 9 9 7 6 6 6 4 3 2 2 2 4 5 6 8 9 10 10 11 11 12 12 13 13 14 15 16 16 16 16 18 19 20 19 18 18 19 19
15 19 20 19 17 17 17 13 10 10 11 11 9 7 7 7 6 5 5 4 2 2 2 4 6 6 7 8 8 9 10 10 11 11 12 12 14 15 16 17 18 19 19 21 24 24 23 23 21
19 19 17 18 17 13 12 12 11 10 10 11 10 10 8 9 7 7 7 6 5 2 1 3 4 6 6 7 8 9 8 9 10 11 12 13 13 14 16 17 18 19 21 23 24 25 26 25 23
18 17 8 17 14 12 11 7 11 11 11 12 12 12 10 9 9 11 10 9 5 3 1 2 3 5 6 7 8 8 9 10 11 11 12 13 14 15 16 18 19 21 22 23 24 25 25 25 26
11 12 10 12 12 10 7 7 6 10 10 10 12 12 10 10 13 14 12 10 7 5 3 1 1 3 5 6 8 9 10 11 11 12 13 15 17 17 18 19 20 20 21 22 23 25 25 25 23
8 7 8 9 6 7 8 10 11 13 13 12 9 9 12 13 18 16 13 11 10 7 4 2 2 3 5 6 8 10 12 13 13 14 16 17 18 18 19 20 21 23 24 25 26 27 28 29 26
4 7 11 8 8 4 5 7 12 16 11 13 13 13 12 16 15 15 15 13 10 8 6 4 3 4 6 8 10 11 12 12 12 14 16 18 20 21 22 22 23 24 25 26 27 28 30 34 37
4 3 9 4 6 5 10 12 8 12 13 16 16 14 17 17 16 16 14 13 11 10 7 4 2 4 5 7 9 11 14 15 16 18 20 21 21 23 24 26 28 28 29 30 31 33 34 38 39
5 3 5 5 3 3 7 8 14 13 9 9 11 14 13 14 15 16 16 14 13 10 8 5 3 4 6 9 12 14 16 17 18 19 21 23 25 26 29 31 32 34 34 34 34 37 42 43 38
5 4 7 8 7 7 12 8 4 9 6 5 10 13 16 16 15 15 14 14 15 11 9 6 4 4 7 9 12 15 17 17 18 21 23 26 28 30 32 35 36 37 37 37 37 40 43 44 41
8 7 9 9 6 4 6 8 7 3 2 2 1 6 10 15 18 17 17 19 16 13 10 6 6 6 8 10 12 13 15 16 18 22 26 29 31 32 35 38 41 41 41 40 41 44 46 45 42
14 11 4 2 2 6 5 6 12 12 9 5 4 7 6 8 12 17 19 18 16 13 13 12 12 12 12 13 14 14 15 18 21 25 28 31 34 36 39 41 44 43 43 43 44 47 48 45 42
17 16 7 5 3 2 2 7 1 4 5 4 8 10 9 10 13 15 16 19 19 18 18 17 16 17 17 17 17 18 19 21 24 27 30 34 37 40 42 45 49 47 46 46 48 52 50 46 43
20 19 17 7 4 3 8 10 13 14 9 9 9 9 8 8 11 13 14 18 22 23 22 20 21 23 22 22 22 21 23 25 28 31 35 38 41 44 46 50 49 48 48 49 54 54 49 47 44
15 15 9 9 3 4 4 9 9 4 3 2 7 10 8 8 10 13 15 17 21 24 26 26 26 28 27 27 26 26 28 29 31 35 38 42 45 47 50 50 48 49 50 56 56 51 49 48 47
17 17 11 7 5 3 1 4 3 4 11 14 9 11 13 14 14 15 14 12 16 22 27 29 30 31 31 30 29 30 31 32 35 39 42 46 48 51 50 48 49 51 56 56 53 52 51 50 48
16 17 17 10 6 7 4 11 19 21 11 12 24 17 18 19 18 21 18 17 18 20 23 31 33 33 33 32 32 32 33 35 39 42 46 49 51 49 49 50 52 58 55 54 53 53 52 52 50
Wind_Direction
150 148 132 120 81 91 108 136 140 149 148 161 165 159 150 134 113 123 127 99 105 93 80 71 63 60 58 59 56 51 49 37 33 28 26 24 20 7 1 7 18 19 25 34 33 35 35 44 45
148 152 149 69 108 88 117 125 152 158 154 177 173 167 192 360 209 132 115 114 100 87 79 67 59 56 51 50 49 45 39 36 32 16 8 11 16 1 348 359 11 13 6 20 19 30 37 38 31
157 158 334 64 101 93 139 139 150 162 160 179 185 201 256 197 139 127 121 103 103 86 76 63 54 48 43 37 35 30 25 19 19 20 15 14 4 357 355 356 352 349 341 334 335 350 6 26 42
161 254 352 69 115 115 148 144 142 163 157 172 193 244 218 149 141 130 104 122 103 86 67 56 49 42 41 35 26 16 7 7 6 9 4 5 5 2 360 355 346 335 331 327 324 324 332 341 349
20 314 327 78 113 122 145 148 152 162 166 158 180 217 161 156 141 109 102 103 89 73 61 46 36 19 6 358 354 352 344 341 339 342 341 345 349 351 351 343 333 317 308 307 306 305 307 312 321
357 316 338 113 132 137 139 138 143 149 160 152 160 154 165 135 115 115 100 81 68 59 51 35 9 347 337 334 328 330 325 318 320 314 313 310 318 317 314 319 320 304 290 291 295 296 297 301 301
344 332 113 137 146 149 156 148 145 150 152 156 157 160 148 125 129 114 97 80 61 39 19 3 349 326 319 316 323 325 324 325 316 311 310 308 302 295 291 293 291 296 295 286 280 283 290 293 296
355 117 133 148 156 163 161 151 143 144 151 154 156 146 134 133 127 115 106 95 42 3 345 346 345 346 356 351 351 348 351 345 337 332 326 323 319 311 297 283 282 279 278 282 281 275 276 280 284
326 161 147 162 161 171 172 159 147 142 153 159 162 143 140 154 125 121 128 102 341 342 344 15 353 345 350 347 346 336 334 334 336 333 329 328 326 323 318 307 297 288 279 272 272 277 276 275 276
98 130 135 138 141 161 164 158 158 155 161 159 165 131 152 134 148 164 193 321 322 337 6 349 351 350 348 348 343 336 335 339 344 336 333 335 335 331 325 318 315 310 301 295 285 275 270 270 272
139 127 120 129 139 153 156 151 160 150 150 156 144 158 151 164 180 193 246 291 307 359 359 347 350 347 351 355 350 345 343 347 350 345 347 346 344 345 341 336 331 325 320 313 306 299 292 284 276
143 126 116 129 133 142 151 151 156 147 134 133 141 163 176 179 197 234 258 274 337 350 354 342 347 354 358 356 358 359 1 2 0 351 346 343 344 344 343 339 333 328 323 316 311 307 303 298 292
155 133 130 121 125 139 147 160 156 151 158 151 157 166 176 198 230 262 266 270 325 350 348 354 357 355 360 5 8 6 3 358 353 351 349 346 344 345 342 341 339 336 333 330 326 320 315 309 301
148 136 135 126 129 128 139 154 168 187 184 177 176 189 206 231 250 258 239 265 292 346 359 353 0 358 3 7 8 5 0 356 356 356 353 350 350 351 349 348 346 345 340 334 329 326 321 316 310
151 146 144 140 145 157 159 186 199 198 199 201 200 211 235 253 252 235 229 236 273 308 350 358 4 7 10 9 5 2 359 357 359 355 352 353 354 352 350 350 348 346 345 345 338 334 329 324 318
151 153 144 159 165 180 184 200 206 205 210 216 222 228 235 252 251 226 228 227 228 240 2 3 2 4 12 10 6 4 1 4 3 358 355 358 0 358 353 352 351 349 348 345 340 338 334 328 320
160 168 167 176 186 198 207 222 216 220 220 228 232 233 236 243 237 227 224 221 223 237 291 356 360 2 6 10 7 1 3 5 3 359 356 357 356 0 354 352 352 352 350 347 342 337 332 330 325
180 178 180 187 202 202 225 250 255 238 237 244 240 243 238 234 237 230 222 221 223 223 226 255 335 355 3 7 1 358 358 356 356 352 353 356 358 357 351 349 348 348 347 346 342 339 334 329 327
152 159 166 192 191 214 233 251 267 258 251 239 237 233 227 226 233 232 228 225 230 229 236 260 301 349 357 356 349 349 350 349 349 348 350 349 347 345 344 344 344 340 337 336 336 339 338 333 324
160 217 195 196 204 230 281 287 256 259 257 242 239 234 229 229 235 230 229 228 234 239 240 251 284 350 349 351 347 344 337 336 337 343 344 343 341 337 336 337 336 333 333 329 328 329 332 335 332
134 162 208 200 215 247 301 298 246 254 248 239 241 236 229 229 229 229 230 231 230 229 232 247 286 354 354 346 341 339 334 331 334 341 341 338 333 331 334 336 334 332 332 331 332 333 333 332 328
129 198 207 218 243 277 323 298 285 261 239 247 242 237 240 240 237 235 232 231 227 229 230 235 282 355 3 356 350 344 339 333 332 330 329 329 330 333 337 338 336 334 333 332 332 334 334 333 330
202 197 221 234 269 289 293 284 301 298 288 318 265 250 245 238 240 240 236 229 233 235 235 244 273 336 346 342 346 349 346 339 328 322 326 330 330 331 335 338 336 333 331 329 329 332 332 332 328
215 217 209 233 259 277 267 228 297 71 10 15 351 238 235 231 237 241 237 238 242 239 239 250 281 303 315 319 325 335 343 338 327 323 324 325 327 328 329 331 333 330 328 326 325 327 330 328 325
216 205 160 221 212 233 273 242 261 299 294 309 262 257 261 258 240 238 247 257 255 254 249 262 277 288 295 299 306 315 321 323 324 323 322 323 324 324 325 325 326 325 324 322 323 324 325 323 319
209 207 193 202 207 254 266 238 208 300 290 269 296 299 290 270 261 257 248 249 254 254 251 255 266 277 284 290 297 304 308 310 313 316 317 319 319 319 319 321 323 323 322 321 321 321 320 319 316
209 212 229 249 269 285 247 263 268 270 297 306 290 294 298 270 252 253 255 248 248 254 256 256 262 273 281 286 293 299 303 305 308 311 313 314 315 315 316 318 320 318 318 317 318 318 315 314 312
215 222 214 211 163 239 272 269 243 210 255 34 349 326 312 299 287 270 265 261 252 250 251 254 260 269 278 284 290 297 300 302 304 308 310 311 310 312 313 315 315 314 314 315 317 315 314 313 312
228 226 216 204 213 202 298 255 256 294 306 314 329 330 300 290 291 286 275 274 266 255 252 253 259 266 272 280 287 293 296 301 303 306 306 306 308 309 311 312 311 312 314 315 313 313 312 312 311
235 238 235 225 222 216 236 265 275 286 293 304 310 302 292 285 277 286 277 270 274 272 261 252 253 259 268 277 285 292 296 299 300 301 301 304 305 309 309 309 311 312 313 313 313 312 311 309 307